Location: Barletta
(41.3170°N, 16.2830°E)
Time: 03:28:58
(UTC+02:00)

ISS - Pass Details

Date: 20 May 2021
Orbit: 417 x 422 km, 51.6° (Epoch: 14 June)

Event Time Altitude Azimuth Distance (km) Brightness Sun altitude
Rises 01:21:00 0° 309° (NW) 2,371 0.5 -28.3°
Reaches altitude 10° 01:23:13 10° 319° (NW) 1,505 -0.5 -28.3°
Enters shadow 01:23:20 11° 319° (NW) 1,462 -0.6 -28.3°
